STARLINK-35512

Last updated on Sun Dec 07 2025 00:02:05 GMT+0000 (Coordinated Universal Time)

1 66330U 25253M 25340.46530752 .00088233 00000+0 20939-2 0 9999 2 66330 43.0020 21.8840 0001132 255.6782 104.3949 15.40717684 5956
UTC large
Height (km)
Speed (km/s)
/
Latitude / Longitude
Inclination (degrees)
Orbital Period (minutes)
Azimuth
Elevation
Range (km)
Doppler Factor

Next 0 passes for location: London (51.5072 / 0.1276)

Sorry there are no passes over London.